Location: Marquette
(46.5440°N, 87.3950°W)
Time: 13:15:49
(UTC-04:00)

Daily predictions for brighter satellites

Satellite Brightness Start Highest point End
(mag) Time Altitude Azimuth Time Altitude Azimuth Time Altitude Azimuth
NOSS 3-4 (A) 4.4 22:17:57 10° NW 22:24:46 55° WSW 22:32:01 10° SSE
NOSS 3-4 (C) 4.4 22:18:02 10° NW 22:24:52 56° WSW 22:32:07 10° SSE
In-Cosmos 22 4.3 22:20:13 10° S 22:25:57 88° E 22:31:45 10° NNE
ARGOS 3.5 22:21:25 10° SE 22:26:41 55° ENE 22:31:58 10° N
CZ-3B DEB 4.4 22:18:01 10° WSW 22:27:57 71° NNW 22:41:08 10° ENE
Cosmos 1408 Rocket 4.5 22:24:47 10° SSE 22:28:32 30° E 22:32:19 10° NNE
MetOp-A 4.2 22:23:42 10° SSE 22:29:02 73° ENE 22:34:24 10° N
Cosmos 1356 Rocket 3.8 22:29:33 10° S 22:33:38 48° E 22:37:47 10° NNE
Tiangong 1 1.7 22:31:09 10° SW 22:33:38 29° SSE 22:36:07 10° ESE
Cosmos 1076 Rocket 3.7 22:29:48 10° S 22:34:03 54° E 22:38:19 10° NNE
Cosmos 2333 Rocket 4.4 22:34:17 10° NW 22:38:18 20° W 22:42:17 10° SW
Terra 3.3 22:36:51 10° ESE 22:40:41 24° ENE 22:44:30 10° N
Cosmos 2016 Rocket 4.2 22:34:56 10° N 22:41:08 57° ENE 22:47:13 10° SSE
Cosmos 2221 2.9 22:38:33 10° NNW 22:42:56 68° W 22:47:17 10° S
Meteor 1-29 4.1 22:40:03 10° N 22:43:21 45° WNW 22:46:39 10° SW
Okean 3 Rocket 3.7 22:40:40 10° S 22:45:10 85° W 22:49:41 10° N
Cosmos 2208 Rocket 4.2 22:43:22 10° NNW 22:48:41 75° WSW 22:54:02 10° SSE
Cosmos 332 Rocket 4.3 22:45:26 10° NNW 22:50:11 48° ENE 22:54:33 12° SE
ERBS 3.5 22:47:59 10° NW 22:51:10 36° NNE 22:54:20 10° E
RESURS DK-1 2.7 22:51:43 10° NNW 22:55:50 56° ENE 22:59:21 14° SE
Cosmos 1242 Rocket 3.0 22:54:50 10° NNW 22:58:31 61° W 23:02:11 10° S
SL-08 RB Rocket 3.7 22:56:04 10° SSE 23:00:36 86° ENE 23:05:15 10° NNW
SPOT 1/Viking Rocket 3.6 22:56:35 11° SSE 23:01:31 74° ENE 23:06:40 10° N
Meteor 2-2 Rocket 4.4 22:56:12 10° N 23:01:55 63° ENE 23:07:11 13° SSE
YAOGAN 11 4.3 22:58:28 10° S 23:02:57 77° WSW 23:07:32 10° NNW
Cosmos 1766 Rocket 3.5 22:59:33 10° S 23:03:51 75° E 23:08:12 10° NNE
USA 245 3.4 23:03:34 11° S 23:06:42 67° W 23:10:50 10° NNW
Meteor 1-21 Rocket 4.3 23:01:07 10° SSW 23:06:49 85° W 23:12:26 10° N
Cosmos 841 Rocket 4.4 23:02:07 10° N 23:07:04 39° ENE 23:11:13 14° SE
EO 1 Delta rocket 3.8 23:04:00 12° SSE 23:08:23 73° ENE 23:13:02 10° N
Cosmos 1328 Rocket 3.7 23:05:09 10° N 23:09:28 58° ENE 23:12:50 16° SSE
Cosmos 1763 Rocket 3.9 23:05:38 10° NNW 23:10:39 50° ENE 23:14:35 16° SE
Cosmos 2228 Rocket 3.4 23:06:21 10° N 23:10:54 57° ENE 23:14:28 16° SSE
Cosmos 1515 Rocket 4.0 23:08:46 10° N 23:12:58 46° ENE 23:16:02 17° SE
Cosmos 2297 Rocket 3.9 23:07:49 10° WSW 23:13:02 37° NW 23:18:17 10° NNE
SL-14 R/B 3.6 23:10:43 14° SSE 23:13:52 47° E 23:17:40 10° NNE
Cosmos 1328 4.0 23:15:50 15° SSE 23:19:02 53° E 23:22:59 10° NNE
Cosmos 1867 3.6 23:14:02 10° SW 23:19:30 90° WNW 23:25:00 10° NE
Cosmos 1743 Rocket 3.8 23:16:55 15° SSE 23:20:18 51° E 23:24:31 10° NNE
H-2A R/B 2.8 23:17:20 17° SE 23:20:20 40° ENE 23:24:19 10° N
Cosmos 1151 Rocket 3.6 23:17:47 10° N 23:22:01 45° ENE 23:24:51 19° SE
Cosmos 1300 2.6 23:18:24 10° N 23:22:15 82° E 23:25:01 18° SSE
Cosmos 2263 Rocket 3.1 23:21:44 17° SSE 23:24:56 28° ESE 23:29:38 10° NE
Cosmos 1626 3.5 23:25:42 19° SE 23:27:10 24° E 23:30:14 10° NE
Cosmos 1726 2.5 23:27:00 10° NNW 23:30:39 58° W 23:33:27 16° S
SPOT 5 3.9 23:28:28 10° S 23:33:03 43° W 23:37:54 10° NNW
Meteor 2-10 4.2 23:27:32 10° NNW 23:33:07 87° W 23:37:39 17° S
ATLAS 5 CENTAUR R/B 2.7 23:28:44 10° WSW 23:33:23 55° NW 23:38:33 10° NNE
Cosmos 2084 3.9 23:30:36 10° SW 23:34:30 57° NW 23:38:16 10° NNE
Lacrosse 5 2.0 23:29:47 10° NW 23:34:49 65° SW 23:38:08 21° SSE
IGS 5A 3.5 23:33:58 21° SSE 23:36:38 71° ENE 23:40:48 10° N
Cosmos 2123 Rocket 4.0 23:30:53 10° S 23:37:04 89° W 23:43:19 10° N
Cosmos 468 Rocket 4.4 23:32:49 10° NNW 23:37:51 56° WSW 23:41:44 17° S
Cosmos 371 Rocket 3.4 23:36:21 10° NNW 23:41:10 75° WSW 23:44:22 21° SSE
USA 234 3.2 23:36:11 10° NE 23:42:46 86° SE 23:49:20 10° SW
Cosmos 1603 4.2 23:39:44 10° NW 23:45:15 53° WSW 23:49:18 18° S
H-2A R/B 2.8 23:41:25 13° S 23:46:00 50° W 23:51:18 10° NNW
Abrixas rocket 2.1 23:42:56 10° WNW 23:46:11 68° SSW 23:47:34 31° SE
Cosmos 2285 Rocket 4.5 23:40:01 10° NNW 23:46:12 52° ENE 23:50:38 19° SE
PSLV R/B 3.3 23:49:40 36° SE 23:50:30 52° ENE 23:53:19 10° N
CZ-4C R/B 4.2 23:53:11 24° SE 23:55:21 43° ENE 23:59:32 10° N
Cosmos 1455 2.8 23:52:29 10° N 23:56:14 45° ENE 23:57:48 28° SE
